Location: Crocus Hill
(18.2167°N, 63.0667°W)
Time: 21:55:36
(UTC+00:00)

COSMOS 2428 - Pass Details

Date: 26 January 2020
Orbit: 844 x 858 km, 70.9° (Epoch: 20 February)

Event Time Altitude Azimuth Distance (km) Brightness Sun altitude
Rises 10:17:37 0° 194° (SSW) 3,394 5.9 -7.4°
Reaches altitude 10° 10:20:03 10° 193° (SSW) 2,462 5.2 -6.8°
Maximum altitude 10:25:42 81° 106° (ESE) 861 2.9 -5.6°
Drops below altitude 10° 10:31:24 10° 20° (NNE) 2,477 5.2 -4.3°
Sets 10:33:51 0° 19° (NNE) 3,416 5.9 -3.7°
